Language: 


Des rapports , des résumés tant et plus, au choix de chacun....


Données statistiques de la station
Quotidien Rapport Octobre 24, 2017 Unités:  Métrique    Anglais   les deux
« Précédent Jour
Suivant Jour »
Quotidien Hebdomadaire Mensuel Annuel Actuel
  Haut: Bas: Moyen:
Température: 18.0 °C 0.0 °C 11.9 °C
Pt de rosée: 18.0 °C 14.0 °C 15.6 °C
Humidité: 98 % 0 % 70 %
Vitesse du vent: 24.5 km/h 0.0 km/h 9.7 km/h
Rafales: 27.4 km/h - -
Vent:- - SW
Pression: 1020.9 hPa 0.0 hPa -
Précipitation: 0.5 mm    
Historical Graphs
 
 
Données statistiques pour Octobre 24, 2017
Heure Température Point de rosée Pression Vent Vitesse du vent Refales Humidité Pluie (taux horaire)
00:02 14.1 °C 14.0 °C 1018.2 hPa SW 1.4 km/h 9.7 km/h 98 % 0.0 mm
00:07 14.1 °C 14.0 °C 1018.2 hPa SSW 6.9 km/h 10.1 km/h 98 % 0.0 mm
00:12 14.1 °C 14.0 °C 1018.2 hPa SSW 5.0 km/h 10.1 km/h 98 % 0.0 mm
00:17 14.1 °C 14.0 °C 1018.8 hPa Calm   8.7 km/h 98 % 0.0 mm
00:22 14.1 °C 14.0 °C 1018.8 hPa SSW 6.4 km/h 9.7 km/h 98 % 0.0 mm
00:27 14.1 °C 14.0 °C 1018.8 hPa SW 8.7 km/h 9.7 km/h 98 % 0.0 mm
00:33 14.1 °C 14.0 °C 1018.2 hPa SSW 2.6 km/h 9.7 km/h 98 % 0.0 mm
00:38 14.1 °C 14.0 °C 1018.2 hPa SSW 8.7 km/h 9.7 km/h 98 % 0.0 mm
00:43 14.1 °C 14.0 °C 1018.2 hPa South 6.4 km/h 9.7 km/h 98 % 0.0 mm
00:48 14.1 °C 14.0 °C 1018.8 hPa WSW 1.4 km/h 10.1 km/h 98 % 0.0 mm
00:53 14.1 °C 14.0 °C 1018.8 hPa SSW 6.1 km/h 11.9 km/h 98 % 0.0 mm
00:58 14.1 °C 14.0 °C 1018.8 hPa SSW 7.9 km/h 11.9 km/h 98 % 0.0 mm
01:03 14.1 °C 14.0 °C 1018.2 hPa SSW 10.5 km/h 10.5 km/h 98 % 0.0 mm
01:08 14.1 °C 14.0 °C 1018.2 hPa SSW 4.3 km/h 10.5 km/h 98 % 0.0 mm
01:13 14.1 °C 14.0 °C 1018.2 hPa SSW 9.3 km/h 10.5 km/h 98 % 0.0 mm
01:18 14.1 °C 14.0 °C 1018.8 hPa WSW 6.9 km/h 9.7 km/h 98 % 0.0 mm
01:23 14.1 °C 14.0 °C 1018.8 hPa WSW 9.0 km/h 9.7 km/h 98 % 0.0 mm
01:28 14.1 °C 14.0 °C 1018.8 hPa SSW 10.5 km/h 11.9 km/h 98 % 0.0 mm
01:33 14.1 °C 14.0 °C 1018.8 hPa Calm   11.9 km/h 98 % 0.0 mm
01:38 14.1 °C 14.0 °C 1018.8 hPa SSW 3.2 km/h 7.9 km/h 98 % 0.0 mm
01:43 14.1 °C 14.0 °C 1018.8 hPa SSW 6.1 km/h 7.9 km/h 98 % 0.0 mm
01:48 14.1 °C 14.0 °C 1018.8 hPa SW 6.4 km/h 10.5 km/h 98 % 0.0 mm
01:53 14.1 °C 14.0 °C 1018.8 hPa SW 9.0 km/h 10.5 km/h 98 % 0.0 mm
01:58 14.1 °C 14.0 °C 1018.8 hPa SSW 9.0 km/h 12.2 km/h 98 % 0.0 mm
02:03 14.1 °C 14.0 °C 1018.8 hPa SSW 7.9 km/h 12.2 km/h 98 % 0.0 mm
02:09 14.1 °C 14.0 °C 1018.8 hPa SW 9.7 km/h 11.6 km/h 98 % 0.0 mm
02:14 14.1 °C 14.0 °C 1018.8 hPa SSW 11.9 km/h 14.8 km/h 98 % 0.0 mm
02:19 14.1 °C 14.0 °C 1018.8 hPa SSW 9.7 km/h 14.8 km/h 98 % 0.0 mm
02:24 14.1 °C 14.0 °C 1018.8 hPa SSW 9.0 km/h 14.8 km/h 98 % 0.0 mm
02:29 14.1 °C 14.0 °C 1018.8 hPa SSW 8.7 km/h 10.5 km/h 98 % 0.0 mm
02:34 14.1 °C 14.0 °C 1018.8 hPa SSW 13.7 km/h 13.7 km/h 98 % 0.0 mm
02:39 14.1 °C 14.0 °C 1018.8 hPa SSW 11.6 km/h 13.7 km/h 98 % 0.0 mm
02:44 14.1 °C 14.0 °C 1018.8 hPa SW 9.7 km/h 13.7 km/h 98 % 0.0 mm
02:49 14.1 °C 14.0 °C 1018.8 hPa SSW 8.7 km/h 11.9 km/h 98 % 0.0 mm
02:54 14.1 °C 14.0 °C 1018.8 hPa WSW 9.3 km/h 10.8 km/h 98 % 0.0 mm
02:59 14.1 °C 14.0 °C 1018.8 hPa SW 5.0 km/h 12.6 km/h 98 % 0.0 mm
03:04 0.0 °C 14.0 °C 1018.2 hPa SW 10.5 km/h 13.0 km/h 0 % 0.0 mm
03:09 0.0 °C 14.0 °C 1018.2 hPa SW 9.7 km/h 13.0 km/h 0 % 0.0 mm
03:14 0.0 °C 14.0 °C 1018.2 hPa SSW 7.6 km/h 13.7 km/h 0 % 0.0 mm
03:19 0.0 °C 14.0 °C 1018.8 hPa SSW 6.9 km/h 13.7 km/h 0 % 0.0 mm
03:24 0.0 °C 14.0 °C 1018.8 hPa Calm   11.6 km/h 0 % 0.0 mm
03:29 0.0 °C 14.0 °C 1018.8 hPa Calm   9.0 km/h 0 % 0.0 mm
03:34 0.0 °C 14.0 °C 1018.2 hPa SSW 3.2 km/h 6.1 km/h 0 % 0.0 mm
03:39 0.0 °C 14.0 °C 1018.2 hPa Calm   6.9 km/h 0 % 0.0 mm
03:45 0.0 °C 14.0 °C 1018.2 hPa South 4.0 km/h 6.9 km/h 0 % 0.0 mm
03:50 0.0 °C 14.0 °C 1018.8 hPa Calm   10.1 km/h 0 % 0.0 mm
03:55 0.0 °C 14.0 °C 1018.8 hPa SSW 6.9 km/h 10.1 km/h 0 % 0.0 mm
04:00 0.0 °C 14.0 °C 1018.8 hPa South 5.8 km/h 7.9 km/h 0 % 0.0 mm
04:10 0.0 °C 14.0 °C 1018.8 hPa SSW 1.4 km/h 6.4 km/h 0 % 0.0 mm
04:15 0.0 °C 14.0 °C 1018.8 hPa South 9.3 km/h 9.3 km/h 0 % 0.0 mm
04:20 0.0 °C 14.0 °C 1018.8 hPa SSW 4.0 km/h 9.3 km/h 0 % 0.0 mm
04:25 0.0 °C 14.0 °C 1018.8 hPa Calm   5.0 km/h 0 % 0.0 mm
04:28 0.0 °C 14.0 °C 1018.8 hPa SSW 6.1 km/h 6.1 km/h 0 % 0.0 mm
04:34 0.0 °C 14.0 °C 1018.8 hPa SSW 6.9 km/h 6.9 km/h 0 % 0.0 mm
04:39 0.0 °C 14.0 °C 1018.8 hPa SSW 6.1 km/h 7.9 km/h 0 % 0.0 mm
04:44 0.0 °C 14.0 °C 1018.8 hPa Calm   7.9 km/h 0 % 0.0 mm
04:49 0.0 °C 14.0 °C 1018.8 hPa South 4.3 km/h 6.1 km/h 0 % 0.0 mm
04:54 0.0 °C 14.0 °C 1018.8 hPa South 4.0 km/h 6.4 km/h 0 % 0.0 mm
04:59 0.0 °C 14.0 °C 1018.8 hPa South 6.1 km/h 6.4 km/h 0 % 0.0 mm
05:09 0.0 °C 14.0 °C 1018.8 hPa SW 9.3 km/h 9.3 km/h 0 % 0.0 mm
05:14 0.0 °C 14.0 °C 1018.8 hPa SSW 7.9 km/h 10.5 km/h 0 % 0.0 mm
05:20 0.0 °C 14.0 °C 1018.8 hPa SW 7.9 km/h 10.5 km/h 0 % 0.0 mm
05:25 0.0 °C 14.0 °C 1018.8 hPa Calm   7.9 km/h 0 % 0.0 mm
05:26 0.0 °C 14.0 °C 1018.8 hPa SSW 5.0 km/h 7.9 km/h 0 % 0.0 mm
05:31 0.0 °C 14.0 °C 1018.8 hPa Calm   6.4 km/h 0 % 0.0 mm
05:36 0.0 °C 14.0 °C 1018.8 hPa Calm   6.4 km/h 0 % 0.0 mm
05:41 0.0 °C 14.0 °C 1018.8 hPa Calm   6.4 km/h 0 % 0.0 mm
05:46 0.0 °C 14.0 °C 1018.2 hPa South 9.3 km/h 9.3 km/h 0 % 0.0 mm
05:51 0.0 °C 14.0 °C 1018.2 hPa SSW 5.5 km/h 9.3 km/h 0 % 0.0 mm
05:56 0.0 °C 14.0 °C 1018.2 hPa SSW 2.1 km/h 7.2 km/h 0 % 0.0 mm
06:02 0.0 °C 14.0 °C 1018.2 hPa SSW 3.5 km/h 9.0 km/h 0 % 0.0 mm
06:07 0.0 °C 14.0 °C 1018.2 hPa South 9.3 km/h 9.3 km/h 0 % 0.0 mm
06:12 0.0 °C 14.0 °C 1018.2 hPa South 5.8 km/h 9.3 km/h 0 % 0.0 mm
06:17 0.0 °C 14.0 °C 1018.8 hPa SSW 12.2 km/h 12.2 km/h 0 % 0.0 mm
06:22 0.0 °C 14.0 °C 1018.8 hPa SSW 5.8 km/h 12.2 km/h 0 % 0.0 mm
06:27 0.0 °C 14.0 °C 1018.8 hPa Calm   11.9 km/h 0 % 0.0 mm
06:32 0.0 °C 14.0 °C 1018.8 hPa SSW 5.5 km/h 11.9 km/h 0 % 0.0 mm
06:37 0.0 °C 14.0 °C 1018.8 hPa SSW 6.1 km/h 13.0 km/h 0 % 0.0 mm
06:42 0.0 °C 14.0 °C 1018.8 hPa SW 10.1 km/h 13.0 km/h 0 % 0.0 mm
06:47 0.0 °C 14.0 °C 1018.8 hPa SSW 5.8 km/h 10.8 km/h 0 % 0.0 mm
06:52 0.0 °C 14.0 °C 1018.8 hPa SSW 10.5 km/h 10.8 km/h 0 % 0.0 mm
06:57 0.0 °C 14.0 °C 1018.8 hPa SSW 6.1 km/h 11.9 km/h 0 % 0.0 mm
07:02 0.0 °C 14.0 °C 1018.2 hPa SSW 9.3 km/h 11.9 km/h 0 % 0.0 mm
07:08 0.0 °C 14.0 °C 1018.2 hPa SSW 9.0 km/h 13.0 km/h 0 % 0.0 mm
07:13 0.0 °C 14.0 °C 1018.2 hPa SSW 9.3 km/h 13.0 km/h 0 % 0.0 mm
07:18 0.0 °C 14.0 °C 1018.2 hPa Calm   13.0 km/h 0 % 0.0 mm
07:23 0.0 °C 14.0 °C 1018.2 hPa SSW 8.7 km/h 13.0 km/h 0 % 0.0 mm
07:28 0.0 °C 14.0 °C 1018.2 hPa SSW 9.7 km/h 11.1 km/h 0 % 0.0 mm
07:33 0.0 °C 14.0 °C 1018.8 hPa SSW 10.5 km/h 10.5 km/h 0 % 0.0 mm
07:38 0.0 °C 14.0 °C 1018.8 hPa WSW 8.7 km/h 12.6 km/h 0 % 0.0 mm
07:43 0.0 °C 14.0 °C 1018.8 hPa SSW 9.0 km/h 12.6 km/h 0 % 0.0 mm
07:48 0.0 °C 14.0 °C 1018.2 hPa SSW 6.1 km/h 12.2 km/h 0 % 0.0 mm
07:53 0.0 °C 14.0 °C 1018.2 hPa SSW 8.7 km/h 12.2 km/h 0 % 0.0 mm
07:58 0.0 °C 14.0 °C 1018.2 hPa SSW 8.7 km/h 12.2 km/h 0 % 0.0 mm
08:03 0.0 °C 14.0 °C 1018.8 hPa SSW 8.7 km/h 12.2 km/h 0 % 0.0 mm
08:08 0.0 °C 14.0 °C 1018.8 hPa SSW 8.7 km/h 12.2 km/h 0 % 0.0 mm
08:14 0.0 °C 14.0 °C 1018.8 hPa SSW 8.7 km/h 12.2 km/h 0 % 0.0 mm
08:19 0.0 °C 14.0 °C 1018.8 hPa SSW 8.7 km/h 12.2 km/h 0 % 0.0 mm
08:24 0.0 °C 14.0 °C 1018.8 hPa SSW 8.7 km/h 12.2 km/h 0 % 0.0 mm
08:29 0.0 °C 14.0 °C 1018.8 hPa SSW 8.7 km/h 12.2 km/h 0 % 0.0 mm
08:34 0.0 °C 14.0 °C 1018.2 hPa SSW 8.7 km/h 12.2 km/h 0 % 0.0 mm
08:39 0.0 °C 14.0 °C 1018.2 hPa SSW 8.7 km/h 12.2 km/h 0 % 0.0 mm
08:44 14.9 °C 15.0 °C 1018.2 hPa SSW 8.7 km/h 12.2 km/h 98 % 0.0 mm
12:32 0.0 °C 15.0 °C 0.0 hPa WSW 10.1 km/h 10.1 km/h 0 % 0.0 mm
12:37 17.3 °C 17.0 °C 1020.9 hPa SW 16.6 km/h 16.6 km/h 97 % 0.0 mm
12:42 17.3 °C 17.0 °C 1020.9 hPa WSW 8.7 km/h 16.6 km/h 97 % 0.0 mm
12:47 17.4 °C 17.0 °C 1019.9 hPa SW 15.8 km/h 15.8 km/h 97 % 0.0 mm
12:52 17.4 °C 17.0 °C 1019.9 hPa SW 17.2 km/h 17.2 km/h 97 % 0.0 mm
12:57 17.4 °C 17.0 °C 1019.9 hPa SW 11.6 km/h 17.2 km/h 97 % 0.0 mm
13:02 17.4 °C 17.0 °C 1019.9 hPa SSW 11.9 km/h 16.6 km/h 97 % 0.0 mm
13:07 17.4 °C 17.0 °C 1019.9 hPa WSW 12.6 km/h 16.6 km/h 97 % 0.0 mm
13:12 17.5 °C 17.0 °C 1019.9 hPa WSW 9.3 km/h 18.3 km/h 97 % 0.0 mm
13:17 17.5 °C 17.0 °C 1020.9 hPa SW 10.5 km/h 18.3 km/h 97 % 0.0 mm
13:22 17.6 °C 17.0 °C 1020.9 hPa SW 11.1 km/h 16.9 km/h 97 % 0.0 mm
13:27 17.6 °C 17.0 °C 1020.9 hPa WSW 9.7 km/h 17.2 km/h 97 % 0.0 mm
13:32 17.6 °C 17.0 °C 1020.9 hPa WSW 7.9 km/h 17.2 km/h 97 % 0.0 mm
13:37 17.6 °C 17.0 °C 1020.9 hPa SW 9.0 km/h 14.0 km/h 97 % 0.0 mm
13:42 17.6 °C 17.0 °C 1020.9 hPa SW 13.0 km/h 14.0 km/h 97 % 0.0 mm
13:47 17.7 °C 17.0 °C 1019.9 hPa WSW 9.7 km/h 14.0 km/h 97 % 0.0 mm
13:53 17.7 °C 17.0 °C 1019.9 hPa West 13.0 km/h 16.6 km/h 97 % 0.0 mm
13:58 17.7 °C 17.0 °C 1019.9 hPa WSW 8.7 km/h 17.7 km/h 97 % 0.0 mm
14:03 17.6 °C 17.0 °C 1020.9 hPa WSW 10.5 km/h 17.7 km/h 97 % 0.0 mm
14:08 17.6 °C 17.0 °C 1020.9 hPa SW 10.5 km/h 14.8 km/h 97 % 0.0 mm
14:13 17.6 °C 17.0 °C 1020.9 hPa SW 16.3 km/h 16.6 km/h 97 % 0.0 mm
14:18 17.6 °C 17.0 °C 1019.9 hPa SW 12.6 km/h 20.6 km/h 97 % 0.0 mm
14:23 17.7 °C 17.0 °C 1019.9 hPa WSW 13.7 km/h 20.6 km/h 97 % 0.0 mm
14:28 17.7 °C 17.0 °C 1019.9 hPa WSW 16.9 km/h 17.7 km/h 97 % 0.0 mm
14:33 17.7 °C 17.0 °C 1020.9 hPa WSW 20.6 km/h 25.3 km/h 97 % 0.0 mm
14:38 17.7 °C 17.0 °C 1020.9 hPa SSW 14.0 km/h 27.4 km/h 97 % 0.0 mm
14:43 17.8 °C 17.0 °C 1020.9 hPa WSW 12.6 km/h 27.4 km/h 97 % 0.0 mm
14:47 17.9 °C 18.0 °C 1019.9 hPa West 20.1 km/h 27.4 km/h 97 % 0.0 mm
14:52 18.0 °C 18.0 °C 1019.9 hPa WSW 12.2 km/h 27.4 km/h 96 % 0.0 mm
14:57 17.9 °C 18.0 °C 1019.9 hPa WSW 19.1 km/h 23.3 km/h 97 % 0.0 mm
15:03 18.0 °C 18.0 °C 1019.9 hPa West 16.6 km/h 23.8 km/h 96 % 0.0 mm
15:08 17.9 °C 18.0 °C 1019.9 hPa West 20.1 km/h 23.0 km/h 97 % 0.0 mm
15:13 17.9 °C 18.0 °C 1019.9 hPa West 17.7 km/h 23.8 km/h 96 % 0.0 mm
15:18 17.9 °C 18.0 °C 1020.9 hPa WSW 24.5 km/h 27.4 km/h 96 % 0.0 mm
15:23 17.9 °C 18.0 °C 1020.9 hPa WSW 13.0 km/h 27.4 km/h 96 % 0.0 mm
15:28 17.9 °C 18.0 °C 1020.9 hPa WSW 15.8 km/h 25.9 km/h 96 % 0.0 mm
15:33 17.8 °C 17.0 °C 1020.9 hPa WSW 17.2 km/h 21.2 km/h 96 % 0.0 mm
15:38 17.8 °C 17.0 °C 1020.9 hPa WSW 11.6 km/h 20.1 km/h 96 % 0.0 mm
15:43 17.8 °C 17.0 °C 1020.9 hPa WSW 11.6 km/h 19.5 km/h 96 % 0.0 mm
15:48 17.8 °C 17.0 °C 1019.9 hPa WSW 16.3 km/h 20.6 km/h 96 % 0.0 mm
15:53 17.8 °C 17.0 °C 1019.9 hPa WSW 12.6 km/h 20.6 km/h 96 % 0.0 mm
15:58 17.8 °C 17.0 °C 1019.9 hPa WSW 16.3 km/h 24.8 km/h 96 % 0.0 mm
16:03 17.8 °C 17.0 °C 1019.9 hPa WSW 14.0 km/h 24.8 km/h 96 % 0.0 mm
16:08 17.8 °C 17.0 °C 1019.9 hPa WSW 13.7 km/h 21.9 km/h 96 % 0.0 mm
16:13 17.7 °C 17.0 °C 1019.9 hPa West 24.5 km/h 24.5 km/h 96 % 0.0 mm
16:19 17.6 °C 17.0 °C 1019.9 hPa WSW 19.8 km/h 24.5 km/h 96 % 0.0 mm
16:24 17.5 °C 17.0 °C 1019.9 hPa WSW 16.6 km/h 21.2 km/h 96 % 0.0 mm
16:29 17.5 °C 17.0 °C 1019.9 hPa WSW 21.2 km/h 21.2 km/h 96 % 0.0 mm
16:34 17.4 °C 17.0 °C 1019.9 hPa West 15.4 km/h 22.7 km/h 96 % 0.0 mm
16:39 17.3 °C 17.0 °C 1019.9 hPa WSW 16.9 km/h 22.7 km/h 96 % 0.0 mm
16:44 17.3 °C 17.0 °C 1019.9 hPa SW 16.6 km/h 25.3 km/h 96 % 0.0 mm
16:49 17.2 °C 17.0 °C 1019.9 hPa WSW 16.9 km/h 25.3 km/h 96 % 0.0 mm
16:54 17.2 °C 17.0 °C 1019.9 hPa WSW 18.3 km/h 20.1 km/h 96 % 0.0 mm
16:59 17.2 °C 17.0 °C 1019.9 hPa WSW 21.2 km/h 21.2 km/h 96 % 0.0 mm
17:04 17.1 °C 17.0 °C 1019.9 hPa WSW 15.8 km/h 22.4 km/h 97 % 0.0 mm
17:09 17.1 °C 17.0 °C 1019.9 hPa WSW 12.6 km/h 22.4 km/h 97 % 0.0 mm
17:14 17.1 °C 17.0 °C 1019.9 hPa SW 16.3 km/h 21.2 km/h 97 % 0.0 mm
17:19 17.1 °C 17.0 °C 1020.9 hPa WSW 15.8 km/h 21.2 km/h 97 % 0.0 mm
17:24 17.1 °C 17.0 °C 1020.9 hPa WSW 12.6 km/h 17.7 km/h 97 % 0.0 mm
17:29 17.1 °C 17.0 °C 1020.9 hPa WSW 15.8 km/h 23.3 km/h 97 % 0.0 mm
17:34 17.1 °C 17.0 °C 1020.9 hPa WSW 16.3 km/h 23.3 km/h 97 % 0.0 mm
17:39 17.1 °C 17.0 °C 1020.9 hPa WSW 16.6 km/h 20.6 km/h 97 % 0.0 mm
17:44 17.1 °C 17.0 °C 1020.9 hPa WSW 14.0 km/h 20.9 km/h 97 % 0.0 mm
17:49 17.1 °C 17.0 °C 1020.9 hPa WSW 15.1 km/h 20.9 km/h 97 % 0.0 mm
17:54 17.1 °C 17.0 °C 1020.9 hPa WSW 17.7 km/h 23.3 km/h 97 % 0.0 mm
17:59 17.1 °C 17.0 °C 1020.9 hPa WSW 12.2 km/h 23.3 km/h 97 % 0.0 mm
18:04 17.1 °C 17.0 °C 1020.9 hPa WSW 12.6 km/h 21.2 km/h 97 % 0.0 mm
18:09 17.1 °C 17.0 °C 1020.9 hPa SW 13.7 km/h 21.2 km/h 96 % 0.0 mm
18:14 17.1 °C 17.0 °C 1020.9 hPa WSW 14.0 km/h 17.2 km/h 96 % 0.0 mm
18:19 17.1 °C 17.0 °C 1020.9 hPa WSW 9.3 km/h 16.6 km/h 96 % 0.0 mm
18:24 17.0 °C 17.0 °C 1020.9 hPa SW 12.6 km/h 17.7 km/h 96 % 0.0 mm
18:29 17.0 °C 17.0 °C 1020.9 hPa WSW 9.3 km/h 17.7 km/h 96 % 0.0 mm
18:34 17.0 °C 17.0 °C 1020.9 hPa WSW 9.3 km/h 16.3 km/h 96 % 0.0 mm
18:39 17.0 °C 17.0 °C 1020.9 hPa WSW 9.7 km/h 21.6 km/h 96 % 0.0 mm
18:44 17.0 °C 17.0 °C 1020.9 hPa SW 11.9 km/h 21.6 km/h 96 % 0.0 mm
18:49 17.0 °C 17.0 °C 1020.9 hPa WSW 14.0 km/h 17.7 km/h 96 % 0.0 mm
18:54 17.0 °C 17.0 °C 1020.9 hPa WSW 13.7 km/h 17.7 km/h 96 % 0.0 mm
18:59 17.0 °C 17.0 °C 1020.9 hPa WSW 16.3 km/h 16.3 km/h 96 % 0.0 mm
19:04 17.0 °C 17.0 °C 1020.9 hPa WSW 17.2 km/h 17.2 km/h 96 % 0.0 mm
19:10 17.0 °C 17.0 °C 1020.9 hPa WSW 12.6 km/h 17.2 km/h 96 % 0.0 mm
19:15 17.0 °C 17.0 °C 1020.9 hPa WSW 16.9 km/h 16.9 km/h 96 % 0.0 mm
19:20 17.0 °C 17.0 °C 1020.9 hPa WSW 12.6 km/h 16.9 km/h 96 % 0.0 mm
19:25 17.0 °C 17.0 °C 1020.9 hPa WSW 15.4 km/h 17.7 km/h 96 % 0.0 mm
19:30 16.9 °C 17.0 °C 1020.9 hPa WSW 13.0 km/h 17.7 km/h 96 % 0.0 mm
19:35 16.9 °C 17.0 °C 1020.9 hPa WSW 14.0 km/h 21.2 km/h 96 % 0.0 mm
19:40 16.9 °C 17.0 °C 1020.9 hPa WSW 12.2 km/h 21.2 km/h 96 % 0.0 mm
19:45 16.9 °C 17.0 °C 1020.9 hPa WSW 16.6 km/h 16.6 km/h 96 % 0.0 mm
19:50 16.9 °C 17.0 °C 1020.9 hPa WSW 14.8 km/h 19.5 km/h 96 % 0.0 mm
19:52 16.9 °C 17.0 °C 1020.9 hPa WSW 11.1 km/h 19.5 km/h 96 % 0.0 mm
19:58 16.9 °C 17.0 °C 1020.9 hPa WSW 13.0 km/h 19.5 km/h 96 % 0.0 mm
20:03 16.9 °C 17.0 °C 1020.9 hPa WSW 13.0 km/h 16.3 km/h 96 % 0.0 mm
20:08 16.9 °C 17.0 °C 1020.9 hPa WSW 11.1 km/h 17.2 km/h 96 % 0.0 mm
20:13 16.9 °C 17.0 °C 1020.9 hPa WSW 13.0 km/h 17.2 km/h 96 % 0.0 mm
20:18 16.8 °C 16.0 °C 1020.9 hPa SW 11.9 km/h 16.6 km/h 96 % 0.0 mm
20:23 16.8 °C 16.0 °C 1020.9 hPa WSW 9.0 km/h 16.6 km/h 96 % 0.0 mm
20:28 16.8 °C 16.0 °C 1020.9 hPa WSW 10.8 km/h 15.1 km/h 96 % 0.0 mm
20:33 16.8 °C 16.0 °C 1020.9 hPa WSW 8.7 km/h 14.3 km/h 96 % 0.0 mm
20:38 16.8 °C 16.0 °C 1020.9 hPa WSW 10.1 km/h 12.6 km/h 96 % 0.0 mm
20:43 16.8 °C 16.0 °C 1020.9 hPa WSW 9.0 km/h 12.6 km/h 96 % 0.0 mm
20:48 16.7 °C 16.0 °C 1020.9 hPa SW 8.7 km/h 11.6 km/h 96 % 0.0 mm
20:53 16.7 °C 16.0 °C 1020.9 hPa WSW 10.1 km/h 11.9 km/h 96 % 0.0 mm
20:58 16.7 °C 16.0 °C 1020.9 hPa West 9.3 km/h 15.1 km/h 96 % 0.0 mm
21:03 16.7 °C 16.0 °C 1020.9 hPa SW 7.9 km/h 15.1 km/h 96 % 0.0 mm
21:08 16.7 °C 16.0 °C 1020.9 hPa WSW 9.0 km/h 14.3 km/h 96 % 0.0 mm
21:13 16.7 °C 16.0 °C 1020.9 hPa WSW 10.5 km/h 17.7 km/h 96 % 0.0 mm
21:18 16.7 °C 16.0 °C 1020.9 hPa WSW 10.5 km/h 17.7 km/h 96 % 0.0 mm
21:23 16.7 °C 16.0 °C 1020.9 hPa WSW 9.3 km/h 15.4 km/h 96 % 0.0 mm
21:28 16.7 °C 16.0 °C 1020.9 hPa WSW 15.8 km/h 16.3 km/h 96 % 0.0 mm
21:33 16.7 °C 16.0 °C 1020.9 hPa WSW 9.7 km/h 16.3 km/h 96 % 0.0 mm
21:38 16.6 °C 16.0 °C 1020.9 hPa WSW 8.7 km/h 15.8 km/h 96 % 0.0 mm
21:43 16.6 °C 16.0 °C 1020.9 hPa WSW 9.7 km/h 15.8 km/h 96 % 0.0 mm
21:48 16.5 °C 16.0 °C 1020.9 hPa Calm   13.0 km/h 96 % 0.0 mm
21:53 16.3 °C 16.0 °C 1020.9 hPa SW 5.8 km/h 9.7 km/h 96 % 0.0 mm
21:58 16.3 °C 16.0 °C 1020.9 hPa SW 5.5 km/h 9.3 km/h 96 % 0.0 mm
22:03 16.3 °C 16.0 °C 1020.9 hPa Calm   9.3 km/h 96 % 0.0 mm
22:08 16.3 °C 16.0 °C 1020.9 hPa Calm   7.9 km/h 97 % 0.0 mm
22:13 16.3 °C 16.0 °C 1020.9 hPa Calm   10.1 km/h 97 % 0.0 mm
22:18 16.3 °C 16.0 °C 1019.9 hPa SSW 6.1 km/h 10.1 km/h 97 % 0.0 mm
22:24 16.3 °C 16.0 °C 1019.9 hPa SSW 9.0 km/h 10.5 km/h 97 % 0.0 mm
22:29 16.3 °C 16.0 °C 1019.9 hPa SW 4.0 km/h 10.5 km/h 97 % 0.0 mm
22:34 16.3 °C 16.0 °C 1020.9 hPa SSW 8.7 km/h 9.0 km/h 97 % 0.0 mm
22:39 16.4 °C 16.0 °C 1020.9 hPa SSW 10.5 km/h 11.6 km/h 97 % 0.0 mm
22:44 16.4 °C 16.0 °C 1020.9 hPa SW 7.9 km/h 12.2 km/h 97 % 0.0 mm
22:49 16.5 °C 16.0 °C 1019.9 hPa SW 6.9 km/h 13.0 km/h 97 % 0.0 mm
22:54 16.5 °C 16.0 °C 1019.9 hPa SW 9.3 km/h 13.0 km/h 97 % 0.0 mm
22:59 16.5 °C 16.0 °C 1019.9 hPa SSW 9.7 km/h 11.6 km/h 97 % 0.0 mm
23:04 16.5 °C 16.0 °C 1019.9 hPa WSW 9.0 km/h 10.1 km/h 97 % 0.0 mm
23:09 16.5 °C 16.0 °C 1019.9 hPa SW 10.5 km/h 12.2 km/h 97 % 0.0 mm
23:14 16.5 °C 16.0 °C 1019.9 hPa SW 9.0 km/h 12.2 km/h 97 % 0.0 mm
23:19 16.5 °C 16.0 °C 1019.9 hPa SW 9.3 km/h 11.9 km/h 97 % 0.0 mm
23:24 16.5 °C 16.0 °C 1019.9 hPa SSW 8.7 km/h 11.6 km/h 97 % 0.0 mm
23:29 16.5 °C 16.0 °C 1019.9 hPa SSW 11.9 km/h 11.9 km/h 97 % 0.0 mm
23:34 16.6 °C 16.0 °C 1020.9 hPa Calm   11.9 km/h 97 % 0.0 mm
23:39 16.6 °C 16.0 °C 1020.9 hPa SSW 6.4 km/h 11.9 km/h 97 % 0.0 mm
23:44 16.5 °C 16.0 °C 1020.9 hPa SSW 4.7 km/h 10.1 km/h 97 % 0.0 mm
23:49 16.5 °C 16.0 °C 1019.9 hPa SW 5.8 km/h 10.5 km/h 97 % 0.0 mm
23:54 16.5 °C 16.0 °C 1019.9 hPa SW 1.4 km/h 10.5 km/h 97 % 0.0 mm
23:59 16.5 °C 16.0 °C 1019.9 hPa WSW 4.0 km/h 9.7 km/h 97 % 0.0 mm
Le Gheer Warneton
Courtoisie de Weather Underground - 2 mb

Mise a jour : 18/12/2017 17:21:11
Généré par Cumulus 1.9.4 (1099)